Terminal Aerodrome Forecast
Issued by NWS

Home | Current Version | Previous Version | Text Only | Print | Product List | Glossary On
Versions: 1 2 3 4 5 6 7 8 9 10 11 12 13 14 15 16 17 18 19 20 21 22 23 24 25 26 27 28 29 30 31 32 33 34 35 36 37 38 39 40 41 42 43 44 45 46 47 48 49 50
000
FTUS41 KCTP 261130
TAFBFD
TAF
KBFD 261130Z 2612/2712 29012G24KT P6SM -SHSN SCT015 BKN035
      TEMPO 2612/2613 1SM -SHSN BKN015 OVC025
     FM261900 25010G20KT P6SM BKN035
     FM270700 24007KT P6SM SCT035=

USA.gov is the U.S. government's official web portal to all federal, state and local government web resources and services.